Time,TemperatureF,DewpointF,PressureIn,WindDirection,WindDirectionDegrees,WindSpeedMPH,WindSpeedGustMPH,Humidity,HourlyPrecipIn,Conditions,Clouds,dailyrainin,SoftwareType,DateUTC
2013-03-10 00:00:00,23.8,22.1,30.23,SW,225,0.0,2.0,93,0.00,,,0.00,Weather View 32 v70,2013-03-10 05:00:00,
2013-03-10 00:05:00,23.4,21.7,30.23,SW,225,0.0,2.0,93,0.00,,,0.00,Weather View 32 v70,2013-03-10 05:05:00,
2013-03-10 00:10:00,23.3,21.6,30.23,SW,225,0.0,2.0,93,0.00,,,0.00,Weather View 32 v70,2013-03-10 05:10:00,
2013-03-10 00:15:00,23.5,21.8,30.23,SW,225,0.0,2.0,93,0.00,,,0.00,Weather View 32 v70,2013-03-10 05:15:00,
2013-03-10 00:20:00,23.9,22.2,30.23,SW,225,0.0,0.0,93,0.00,,,0.00,Weather View 32 v70,2013-03-10 05:20:00,
2013-03-10 00:25:00,24.5,22.8,30.23,SW,225,0.0,0.0,93,0.00,,,0.00,Weather View 32 v70,2013-03-10 05:25:00,
2013-03-10 00:30:00,25.5,24.0,30.24,South,180,1.0,2.0,94,0.00,,,0.00,Weather View 32 v70,2013-03-10 05:30:00,
2013-03-10 00:35:00,26.3,24.8,30.24,ESE,112,1.0,2.0,94,0.00,,,0.00,Weather View 32 v70,2013-03-10 05:35:00,
2013-03-10 00:41:00,26.8,25.3,30.23,East,90,2.0,2.0,94,0.00,,,0.00,Weather View 32 v70,2013-03-10 05:41:00,
2013-03-10 00:46:00,26.9,25.4,30.23,ENE,67,3.0,3.0,94,0.00,,,0.00,Weather View 32 v70,2013-03-10 05:46:00,
2013-03-10 00:51:00,27.5,26.0,30.23,ESE,112,2.0,6.0,94,0.00,,,0.00,Weather View 32 v70,2013-03-10 05:51:00,
2013-03-10 00:56:00,27.4,25.9,30.24,East,90,2.0,6.0,94,0.00,,,0.00,Weather View 32 v70,2013-03-10 05:56:00,
2013-03-10 01:01:00,27.1,25.6,30.24,ENE,67,1.0,6.0,94,0.00,,,0.00,Weather View 32 v70,2013-03-10 06:01:00,
2013-03-10 01:06:00,26.6,25.1,30.24,ESE,112,1.0,6.0,94,0.00,,,0.00,Weather View 32 v70,2013-03-10 06:06:00,
2013-03-10 01:11:00,25.9,24.4,30.24,SSE,157,0.0,6.0,94,0.00,,,0.00,Weather View 32 v70,2013-03-10 06:11:00,
2013-03-10 01:16:00,24.8,23.1,30.25,SSE,157,2.0,6.0,93,0.00,,,0.00,Weather View 32 v70,2013-03-10 06:16:00,
2013-03-10 01:21:00,24.0,22.3,30.25,SSE,157,0.0,6.0,93,0.00,,,0.00,Weather View 32 v70,2013-03-10 06:21:00,
2013-03-10 01:26:00,23.6,21.9,30.25,SSE,157,0.0,6.0,93,0.00,,,0.00,Weather View 32 v70,2013-03-10 06:26:00,
2013-03-10 01:31:00,23.3,21.6,30.25,SSE,157,0.0,6.0,93,0.00,,,0.00,Weather View 32 v70,2013-03-10 06:31:00,
2013-03-10 01:36:00,23.3,21.6,30.24,SSE,157,0.0,6.0,93,0.00,,,0.00,Weather View 32 v70,2013-03-10 06:36:00,
2013-03-10 01:41:00,23.8,22.1,30.25,SSE,157,0.0,6.0,93,0.00,,,0.00,Weather View 32 v70,2013-03-10 06:41:00,
2013-03-10 01:46:00,23.4,21.7,30.25,SSE,157,0.0,6.0,93,0.00,,,0.00,Weather View 32 v70,2013-03-10 06:46:00,
2013-03-10 01:51:00,22.8,21.1,30.24,SSE,157,0.0,2.0,93,0.00,,,0.00,Weather View 32 v70,2013-03-10 06:51:00,
2013-03-10 01:56:00,21.9,20.2,30.24,SSE,157,0.0,2.0,93,0.00,,,0.00,Weather View 32 v70,2013-03-10 06:56:00,
2013-03-10 03:01:00,21.1,19.4,30.24,SSE,157,0.0,0.0,93,0.00,,,0.00,Weather View 32 v70,2013-03-10 07:01:00,
2013-03-10 03:06:00,20.9,19.2,30.25,SSE,157,0.0,0.0,93,0.00,,,0.00,Weather View 32 v70,2013-03-10 07:06:00,
2013-03-10 03:11:00,20.6,18.9,30.25,SSE,157,0.0,0.0,93,0.00,,,0.00,Weather View 32 v70,2013-03-10 07:11:00,
2013-03-10 03:16:00,20.1,18.4,30.25,SSE,157,0.0,0.0,93,0.00,,,0.00,Weather View 32 v70,2013-03-10 07:16:00,
2013-03-10 03:21:00,20.1,18.4,30.24,SSE,157,1.0,2.0,93,0.00,,,0.00,Weather View 32 v70,2013-03-10 07:21:00,
2013-03-10 03:26:00,20.6,18.9,30.24,SSE,157,0.0,2.0,93,0.00,,,0.00,Weather View 32 v70,2013-03-10 07:26:00,
2013-03-10 03:31:00,20.4,18.7,30.24,SSE,157,0.0,2.0,93,0.00,,,0.00,Weather View 32 v70,2013-03-10 07:31:00,
2013-03-10 03:36:00,20.2,18.5,30.24,SSE,157,0.0,2.0,93,0.00,,,0.00,Weather View 32 v70,2013-03-10 07:36:00,
2013-03-10 03:41:00,20.2,18.5,30.23,SSE,157,0.0,2.0,93,0.00,,,0.00,Weather View 32 v70,2013-03-10 07:41:00,
2013-03-10 03:46:00,20.2,18.5,30.24,SSE,157,0.0,2.0,93,0.00,,,0.00,Weather View 32 v70,2013-03-10 07:46:00,
2013-03-10 03:51:00,20.2,18.5,30.24,SSE,157,0.0,2.0,93,0.00,,,0.00,Weather View 32 v70,2013-03-10 07:51:00,
2013-03-10 03:56:00,20.4,18.7,30.24,SSE,157,0.0,2.0,93,0.00,,,0.00,Weather View 32 v70,2013-03-10 07:56:00,
2013-03-10 04:01:00,20.7,19.0,30.24,SSE,157,0.0,2.0,93,0.00,,,0.00,Weather View 32 v70,2013-03-10 08:01:00,
2013-03-10 04:06:00,19.9,18.2,30.24,SSE,157,0.0,2.0,93,0.00,,,0.00,Weather View 32 v70,2013-03-10 08:06:00,
2013-03-10 04:11:00,20.0,18.3,30.24,SSE,157,0.0,2.0,93,0.00,,,0.00,Weather View 32 v70,2013-03-10 08:11:00,
2013-03-10 04:16:00,19.9,18.2,30.24,SSE,157,0.0,2.0,93,0.00,,,0.00,Weather View 32 v70,2013-03-10 08:16:00,
2013-03-10 04:21:00,19.9,18.2,30.24,SSE,157,0.0,2.0,93,0.00,,,0.00,Weather View 32 v70,2013-03-10 08:21:00,
2013-03-10 04:26:00,20.6,18.9,30.24,SSE,157,0.0,2.0,93,0.00,,,0.00,Weather View 32 v70,2013-03-10 08:26:00,
2013-03-10 04:31:00,20.7,19.0,30.23,SSE,157,0.0,2.0,93,0.00,,,0.00,Weather View 32 v70,2013-03-10 08:31:00,
2013-03-10 04:36:00,20.4,18.7,30.23,SSE,157,0.0,2.0,93,0.00,,,0.00,Weather View 32 v70,2013-03-10 08:36:00,
2013-03-10 04:41:00,20.0,18.3,30.23,SSE,157,0.0,2.0,93,0.00,,,0.00,Weather View 32 v70,2013-03-10 08:41:00,
2013-03-10 04:46:00,19.8,18.1,30.24,SSE,157,0.0,2.0,93,0.00,,,0.00,Weather View 32 v70,2013-03-10 08:46:00,
2013-03-10 04:51:00,19.6,17.9,30.23,SSE,157,1.0,2.0,93,0.00,,,0.00,Weather View 32 v70,2013-03-10 08:51:00,
2013-03-10 04:56:00,19.4,17.7,30.23,SSE,157,0.0,2.0,93,0.00,,,0.00,Weather View 32 v70,2013-03-10 08:56:00,
2013-03-10 05:01:00,18.9,17.2,30.24,SSE,157,0.0,2.0,93,0.00,,,0.00,Weather View 32 v70,2013-03-10 09:01:00,
2013-03-10 05:06:00,18.9,17.2,30.23,SSE,157,0.0,2.0,93,0.00,,,0.00,Weather View 32 v70,2013-03-10 09:06:00,
2013-03-10 05:11:00,18.9,17.2,30.23,SSE,157,0.0,2.0,93,0.00,,,0.00,Weather View 32 v70,2013-03-10 09:11:00,
2013-03-10 05:16:00,18.8,17.1,30.23,SSE,157,0.0,2.0,93,0.00,,,0.00,Weather View 32 v70,2013-03-10 09:16:00,
2013-03-10 05:21:00,18.5,16.8,30.23,SSE,157,0.0,2.0,93,0.00,,,0.00,Weather View 32 v70,2013-03-10 09:21:00,
2013-03-10 05:26:00,18.6,16.9,30.23,SSE,157,0.0,2.0,93,0.00,,,0.00,Weather View 32 v70,2013-03-10 09:26:00,
2013-03-10 05:31:00,18.6,16.9,30.23,SSE,157,0.0,2.0,93,0.00,,,0.00,Weather View 32 v70,2013-03-10 09:31:00,
2013-03-10 05:36:00,18.2,16.5,30.23,SSE,157,0.0,2.0,93,0.00,,,0.00,Weather View 32 v70,2013-03-10 09:36:00,
2013-03-10 05:41:00,18.0,16.3,30.23,SSE,157,0.0,2.0,93,0.00,,,0.00,Weather View 32 v70,2013-03-10 09:41:00,
2013-03-10 05:46:00,18.2,16.5,30.23,SSE,157,0.0,2.0,93,0.00,,,0.00,Weather View 32 v70,2013-03-10 09:46:00,
2013-03-10 05:51:00,18.2,16.5,30.24,SSE,157,0.0,2.0,93,0.00,,,0.00,Weather View 32 v70,2013-03-10 09:51:00,
2013-03-10 05:56:00,17.9,16.2,30.24,SSE,157,0.0,1.0,93,0.00,,,0.00,Weather View 32 v70,2013-03-10 09:56:00,
2013-03-10 06:01:00,17.9,16.2,30.24,SSE,157,0.0,1.0,93,0.00,,,0.00,Weather View 32 v70,2013-03-10 10:01:00,
2013-03-10 06:06:00,17.9,16.2,30.24,SSE,157,0.0,0.0,93,0.00,,,0.00,Weather View 32 v70,2013-03-10 10:06:00,
2013-03-10 06:11:00,18.0,16.3,30.23,SSE,157,0.0,0.0,93,0.00,,,0.00,Weather View 32 v70,2013-03-10 10:11:00,
2013-03-10 06:16:00,17.9,16.2,30.24,SSE,157,0.0,0.0,93,0.00,,,0.00,Weather View 32 v70,2013-03-10 10:16:00,
2013-03-10 06:21:00,17.5,15.8,30.24,SSE,157,0.0,0.0,93,0.00,,,0.00,Weather View 32 v70,2013-03-10 10:21:00,
2013-03-10 06:26:00,17.3,15.6,30.24,SSE,157,0.0,0.0,93,0.00,,,0.00,Weather View 32 v70,2013-03-10 10:26:00,
2013-03-10 06:31:00,17.1,15.4,30.23,SSE,157,0.0,0.0,93,0.00,,,0.00,Weather View 32 v70,2013-03-10 10:31:00,
2013-03-10 06:36:00,17.5,15.8,30.24,SSE,157,0.0,0.0,93,0.00,,,0.00,Weather View 32 v70,2013-03-10 10:36:00,
2013-03-10 06:41:00,17.6,15.9,30.24,SSE,157,0.0,0.0,93,0.00,,,0.00,Weather View 32 v70,2013-03-10 10:41:00,
2013-03-10 06:46:00,17.8,16.1,30.24,SSE,157,0.0,0.0,93,0.00,,,0.00,Weather View 32 v70,2013-03-10 10:46:00,
2013-03-10 06:51:00,17.8,16.1,30.24,SSE,157,0.0,0.0,93,0.00,,,0.00,Weather View 32 v70,2013-03-10 10:51:00,
2013-03-10 06:56:00,17.5,15.8,30.25,SSE,157,0.0,0.0,93,0.00,,,0.00,Weather View 32 v70,2013-03-10 10:56:00,
2013-03-10 07:01:00,17.3,15.6,30.25,SSE,157,0.0,0.0,93,0.00,,,0.00,Weather View 32 v70,2013-03-10 11:01:00,
2013-03-10 07:06:00,17.1,15.4,30.25,SSE,157,0.0,0.0,93,0.00,,,0.00,Weather View 32 v70,2013-03-10 11:06:00,
2013-03-10 07:11:00,17.0,15.3,30.25,SSE,157,0.0,0.0,93,0.00,,,0.00,Weather View 32 v70,2013-03-10 11:11:00,
2013-03-10 07:16:00,16.9,15.2,30.25,SSE,157,0.0,0.0,93,0.00,,,0.00,Weather View 32 v70,2013-03-10 11:16:00,
2013-03-10 07:21:00,16.9,15.2,30.25,SSE,157,0.0,0.0,93,0.00,,,0.00,Weather View 32 v70,2013-03-10 11:21:00,
2013-03-10 07:26:00,16.9,15.2,30.25,SSE,157,0.0,0.0,93,0.00,,,0.00,Weather View 32 v70,2013-03-10 11:26:00,
2013-03-10 07:31:00,16.6,14.9,30.25,SSE,157,0.0,0.0,93,0.00,,,0.00,Weather View 32 v70,2013-03-10 11:31:00,
2013-03-10 07:36:00,16.3,14.6,30.25,SSE,157,0.0,0.0,93,0.00,,,0.00,Weather View 32 v70,2013-03-10 11:36:00,
2013-03-10 07:41:00,16.1,14.4,30.27,SSE,157,0.0,0.0,93,0.00,,,0.00,Weather View 32 v70,2013-03-10 11:41:00,
2013-03-10 07:46:00,15.9,14.2,30.27,SSE,157,0.0,0.0,93,0.00,,,0.00,Weather View 32 v70,2013-03-10 11:46:00,
2013-03-10 07:51:00,15.8,14.1,30.27,SSE,157,0.0,0.0,93,0.00,,,0.00,Weather View 32 v70,2013-03-10 11:51:00,
2013-03-10 07:56:00,15.9,14.2,30.26,SSE,157,0.0,0.0,93,0.00,,,0.00,Weather View 32 v70,2013-03-10 11:56:00,
2013-03-10 08:02:00,16.6,14.9,30.25,SSE,157,0.0,0.0,93,0.00,,,0.00,Weather View 32 v70,2013-03-10 12:02:00,
2013-03-10 08:07:00,17.1,15.4,30.26,SSE,157,0.0,0.0,93,0.00,,,0.00,Weather View 32 v70,2013-03-10 12:07:00,
2013-03-10 08:12:00,17.9,16.2,30.26,SSE,157,0.0,0.0,93,0.00,,,0.00,Weather View 32 v70,2013-03-10 12:12:00,
2013-03-10 08:17:00,19.4,17.7,30.27,SSE,157,0.0,0.0,93,0.00,,,0.00,Weather View 32 v70,2013-03-10 12:17:00,
2013-03-10 08:22:00,20.5,18.8,30.27,SSE,157,0.0,0.0,93,0.00,,,0.00,Weather View 32 v70,2013-03-10 12:22:00,
2013-03-10 08:27:00,20.9,19.2,30.28,SSE,157,0.0,0.0,93,0.00,,,0.00,Weather View 32 v70,2013-03-10 12:27:00,
2013-03-10 08:32:00,21.4,19.7,30.28,SSE,157,0.0,0.0,93,0.00,,,0.00,Weather View 32 v70,2013-03-10 12:32:00,
2013-03-10 08:37:00,22.3,20.6,30.27,SSE,157,0.0,0.0,93,0.00,,,0.00,Weather View 32 v70,2013-03-10 12:37:00,
2013-03-10 08:42:00,22.9,21.2,30.27,SSE,157,0.0,0.0,93,0.00,,,0.00,Weather View 32 v70,2013-03-10 12:42:00,
2013-03-10 08:47:00,23.4,21.7,30.28,SSE,157,0.0,0.0,93,0.00,,,0.00,Weather View 32 v70,2013-03-10 12:47:00,
2013-03-10 08:52:00,24.9,23.2,30.28,ENE,67,0.0,2.0,93,0.00,,,0.00,Weather View 32 v70,2013-03-10 12:52:00,
2013-03-10 08:57:00,26.4,24.9,30.28,ENE,67,0.0,2.0,94,0.00,,,0.00,Weather View 32 v70,2013-03-10 12:57:00,
2013-03-10 09:02:00,27.5,26.0,30.27,ENE,67,2.0,2.0,94,0.00,,,0.00,Weather View 32 v70,2013-03-10 13:02:00,
2013-03-10 09:07:00,28.6,27.1,30.28,ENE,67,2.0,3.0,94,0.00,,,0.00,Weather View 32 v70,2013-03-10 13:07:00,
2013-03-10 09:12:00,29.8,28.3,30.28,ENE,67,0.0,3.0,94,0.00,,,0.00,Weather View 32 v70,2013-03-10 13:12:00,
2013-03-10 09:17:00,30.6,29.1,30.29,NE,45,2.0,3.0,94,0.00,,,0.00,Weather View 32 v70,2013-03-10 13:17:00,
2013-03-10 09:22:00,30.8,29.3,30.29,ENE,67,2.0,5.0,94,0.00,,,0.00,Weather View 32 v70,2013-03-10 13:22:00,
2013-03-10 09:27:00,31.2,29.9,30.29,NNE,22,4.0,5.0,95,0.00,,,0.00,Weather View 32 v70,2013-03-10 13:27:00,
2013-03-10 09:32:00,32.1,30.8,30.29,NE,45,1.0,5.0,95,0.00,,,0.00,Weather View 32 v70,2013-03-10 13:32:00,
2013-03-10 09:37:00,32.5,31.2,30.29,NE,45,4.0,6.0,95,0.00,,,0.00,Weather View 32 v70,2013-03-10 13:37:00,
2013-03-10 09:42:00,33.1,31.8,30.29,NE,45,1.0,7.0,95,0.00,,,0.00,Weather View 32 v70,2013-03-10 13:42:00,
2013-03-10 09:47:00,33.9,32.6,30.30,NE,45,4.0,7.0,95,0.00,,,0.00,Weather View 32 v70,2013-03-10 13:47:00,
2013-03-10 09:52:00,33.9,32.6,30.30,ENE,67,1.0,7.0,95,0.00,,,0.00,Weather View 32 v70,2013-03-10 13:52:00,
2013-03-10 09:57:00,34.3,33.0,30.29,NE,45,2.0,7.0,95,0.00,,,0.00,Weather View 32 v70,2013-03-10 13:57:00,
2013-03-10 10:02:00,34.6,33.3,30.29,ENE,67,2.0,7.0,95,0.00,,,0.00,Weather View 32 v70,2013-03-10 14:02:00,
2013-03-10 10:07:00,33.9,32.6,30.29,East,90,1.0,7.0,95,0.00,,,0.00,Weather View 32 v70,2013-03-10 14:07:00,
2013-03-10 10:12:00,33.6,32.3,30.29,ENE,67,1.0,7.0,95,0.00,,,0.00,Weather View 32 v70,2013-03-10 14:12:00,
2013-03-10 10:17:00,33.6,32.3,30.29,North,360,1.0,7.0,95,0.00,,,0.00,Weather View 32 v70,2013-03-10 14:17:00,
2013-03-10 10:22:00,34.2,32.9,30.29,NE,45,3.0,7.0,95,0.00,,,0.00,Weather View 32 v70,2013-03-10 14:22:00,
2013-03-10 10:27:00,33.9,32.6,30.29,ESE,112,4.0,7.0,95,0.00,,,0.00,Weather View 32 v70,2013-03-10 14:27:00,
2013-03-10 10:33:00,34.3,33.0,30.29,NE,45,3.0,7.0,95,0.00,,,0.00,Weather View 32 v70,2013-03-10 14:33:00,
2013-03-10 10:38:00,34.9,32.8,30.29,ENE,67,4.0,7.0,92,0.00,,,0.00,Weather View 32 v70,2013-03-10 14:38:00,
2013-03-10 10:43:00,34.8,31.9,30.29,NE,45,4.0,6.0,89,0.00,,,0.00,Weather View 32 v70,2013-03-10 14:43:00,
2013-03-10 10:48:00,34.7,32.6,30.29,North,360,2.0,7.0,92,0.00,,,0.00,Weather View 32 v70,2013-03-10 14:48:00,
2013-03-10 10:53:00,34.9,32.3,30.29,ENE,67,6.0,7.0,90,0.00,,,0.00,Weather View 32 v70,2013-03-10 14:53:00,
2013-03-10 10:58:00,35.0,32.1,30.29,NE,45,6.0,7.0,89,0.00,,,0.00,Weather View 32 v70,2013-03-10 14:58:00,
2013-03-10 11:03:00,35.5,32.6,30.29,East,90,2.0,8.0,89,0.00,,,0.00,Weather View 32 v70,2013-03-10 15:03:00,
2013-03-10 11:08:00,36.4,32.9,30.29,NNE,22,1.0,8.0,87,0.00,,,0.00,Weather View 32 v70,2013-03-10 15:08:00,
2013-03-10 11:13:00,37.1,33.0,30.29,NNW,337,2.0,8.0,85,0.00,,,0.00,Weather View 32 v70,2013-03-10 15:13:00,
2013-03-10 11:18:00,37.6,32.6,30.29,ENE,67,4.0,8.0,82,0.00,,,0.00,Weather View 32 v70,2013-03-10 15:18:00,
2013-03-10 11:23:00,37.7,31.8,30.29,NE,45,6.0,8.0,79,0.00,,,0.00,Weather View 32 v70,2013-03-10 15:23:00,
2013-03-10 11:28:00,37.6,31.0,30.28,NE,45,7.0,10.0,77,0.00,,,0.00,Weather View 32 v70,2013-03-10 15:28:00,
2013-03-10 11:33:00,37.8,29.9,30.28,ESE,112,2.0,10.0,73,0.00,,,0.00,Weather View 32 v70,2013-03-10 15:33:00,
2013-03-10 11:38:00,38.2,30.6,30.28,NNE,22,0.0,10.0,74,0.00,,,0.00,Weather View 32 v70,2013-03-10 15:38:00,
2013-03-10 11:43:00,37.9,29.3,30.27,NE,45,4.0,10.0,71,0.00,,,0.00,Weather View 32 v70,2013-03-10 15:43:00,
2013-03-10 11:48:00,38.3,29.4,30.27,NNE,22,4.0,10.0,70,0.00,,,0.00,Weather View 32 v70,2013-03-10 15:48:00,
2013-03-10 11:53:00,38.1,30.2,30.27,East,90,2.0,10.0,73,0.00,,,0.00,Weather View 32 v70,2013-03-10 15:53:00,
2013-03-10 11:58:00,38.6,28.6,30.27,ENE,67,5.0,10.0,67,0.00,,,0.00,Weather View 32 v70,2013-03-10 15:58:00,
2013-03-10 12:00:00,38.7,29.0,30.27,ENE,67,6.0,10.0,68,0.00,,,0.00,Weather View 32 v70,2013-03-10 16:00:00,
2013-03-10 12:03:00,38.7,31.8,30.27,East,90,2.0,10.0,76,0.00,,,0.00,Weather View 32 v70,2013-03-10 16:03:00,
2013-03-10 12:08:00,38.7,31.8,30.27,East,90,2.0,10.0,76,0.19,,,0.00,Weather View 32 v70,2013-03-10 16:08:00,
2013-03-10 12:13:00,38.7,31.8,30.27,East,90,2.0,10.0,76,0.19,,,0.00,Weather View 32 v70,2013-03-10 16:13:00,
2013-03-10 12:18:00,38.7,31.8,30.27,East,90,2.0,10.0,76,0.19,,,0.00,Weather View 32 v70,2013-03-10 16:18:00,
2013-03-10 12:23:00,40.6,28.2,30.27,ENE,67,2.0,10.0,61,0.00,,,0.00,Weather View 32 v70,2013-03-10 16:23:00,
2013-03-10 12:28:00,40.9,28.1,30.27,South,180,1.0,9.0,60,0.00,,,0.00,Weather View 32 v70,2013-03-10 16:28:00,
2013-03-10 12:33:00,41.3,26.8,30.28,ENE,67,6.0,9.0,56,0.00,,,0.00,Weather View 32 v70,2013-03-10 16:33:00,
2013-03-10 12:38:00,41.2,27.5,30.28,NE,45,2.0,9.0,58,0.00,,,0.00,Weather View 32 v70,2013-03-10 16:38:00,
2013-03-10 12:43:00,41.4,28.1,30.28,NE,45,5.0,8.0,59,0.20,,,0.00,Weather View 32 v70,2013-03-10 16:43:00,
2013-03-10 12:48:00,41.9,27.3,30.27,NE,45,4.0,8.0,56,0.00,,,0.00,Weather View 32 v70,2013-03-10 16:48:00,
2013-03-10 12:53:00,41.5,26.5,30.27,NNE,22,1.0,9.0,55,0.00,,,0.00,Weather View 32 v70,2013-03-10 16:53:00,
2013-03-10 12:58:00,42.9,28.7,30.27,East,90,4.0,9.0,57,0.00,,,0.00,Weather View 32 v70,2013-03-10 16:58:00,
2013-03-10 13:03:00,43.3,28.6,30.27,NNE,22,2.0,9.0,56,0.00,,,0.00,Weather View 32 v70,2013-03-10 17:03:00,
2013-03-10 13:08:00,43.3,28.2,30.27,NE,45,1.0,9.0,55,0.00,,,0.00,Weather View 32 v70,2013-03-10 17:08:00,
2013-03-10 13:13:00,44.3,29.1,30.28,NNW,337,1.0,9.0,55,0.00,,,0.00,Weather View 32 v70,2013-03-10 17:13:00,
2013-03-10 13:18:00,44.5,29.3,30.27,WNW,292,2.0,9.0,55,0.00,,,0.00,Weather View 32 v70,2013-03-10 17:18:00,
2013-03-10 13:23:00,44.5,28.9,30.27,NE,45,0.0,9.0,54,0.00,,,0.00,Weather View 32 v70,2013-03-10 17:23:00,
2013-03-10 13:28:00,44.7,29.0,30.27,NE,45,8.0,9.0,54,0.00,,,0.00,Weather View 32 v70,2013-03-10 17:28:00,
2013-03-10 13:34:00,44.4,28.8,30.27,ENE,67,2.0,9.0,54,0.21,,,0.00,Weather View 32 v70,2013-03-10 17:34:00,
2013-03-10 13:39:00,45.2,30.4,30.26,NE,45,2.0,9.0,56,0.00,,,0.00,Weather View 32 v70,2013-03-10 17:39:00,
2013-03-10 13:44:00,45.2,30.8,30.26,ENE,67,0.0,9.0,57,0.00,,,0.00,Weather View 32 v70,2013-03-10 17:44:00,
2013-03-10 13:49:00,45.9,31.5,30.25,ENE,67,2.0,9.0,57,0.00,,,0.00,Weather View 32 v70,2013-03-10 17:49:00,
2013-03-10 13:54:00,45.5,32.0,30.25,ENE,67,2.0,8.0,59,0.00,,,0.00,Weather View 32 v70,2013-03-10 17:54:00,
2013-03-10 13:59:00,45.8,30.1,30.25,South,180,1.0,8.0,54,0.00,,,0.00,Weather View 32 v70,2013-03-10 17:59:00,
2013-03-10 14:04:00,45.3,31.4,30.25,NNE,22,1.0,8.0,58,0.00,,,0.00,Weather View 32 v70,2013-03-10 18:04:00,
2013-03-10 14:09:00,45.9,30.2,30.25,NE,45,1.0,8.0,54,0.00,,,0.00,Weather View 32 v70,2013-03-10 18:09:00,
2013-03-10 14:14:00,46.3,30.1,30.25,NE,45,3.0,8.0,53,0.00,,,0.00,Weather View 32 v70,2013-03-10 18:14:00,
2013-03-10 14:19:00,46.0,30.7,30.25,ESE,112,1.0,8.0,55,0.00,,,0.00,Weather View 32 v70,2013-03-10 18:19:00,
2013-03-10 14:24:00,45.4,31.5,30.25,East,90,1.0,9.0,58,0.00,,,0.00,Weather View 32 v70,2013-03-10 18:24:00,
2013-03-10 14:31:00,45.8,32.7,30.24,ENE,67,1.0,9.0,60,0.00,,,0.00,Weather View 32 v70,2013-03-10 18:31:00,
2013-03-10 14:36:00,45.7,29.1,30.24,ENE,67,2.0,9.0,52,0.00,,,0.00,Weather View 32 v70,2013-03-10 18:36:00,
2013-03-10 14:41:00,45.6,29.9,30.23,ENE,67,2.0,10.0,54,0.00,,,0.00,Weather View 32 v70,2013-03-10 18:41:00,
2013-03-10 14:46:00,45.9,29.7,30.23,ENE,67,2.0,10.0,53,0.00,,,0.00,Weather View 32 v70,2013-03-10 18:46:00,
2013-03-10 14:51:00,45.9,29.7,30.23,North,360,2.0,10.0,53,0.00,,,0.00,Weather View 32 v70,2013-03-10 18:51:00,
2013-03-10 14:56:00,45.7,29.1,30.23,NE,45,4.0,11.0,52,0.00,,,0.00,Weather View 32 v70,2013-03-10 18:56:00,
2013-03-10 15:01:00,45.8,28.7,30.23,NE,45,2.0,11.0,51,0.00,,,0.00,Weather View 32 v70,2013-03-10 19:01:00,
2013-03-10 15:06:00,45.8,30.1,30.23,North,360,4.0,11.0,54,0.00,,,0.00,Weather View 32 v70,2013-03-10 19:06:00,
2013-03-10 15:11:00,46.2,28.6,30.23,East,90,4.0,11.0,50,0.00,,,0.00,Weather View 32 v70,2013-03-10 19:11:00,
2013-03-10 15:16:00,46.2,29.0,30.23,ENE,67,2.0,11.0,51,0.00,,,0.00,Weather View 32 v70,2013-03-10 19:16:00,
2013-03-10 15:21:00,46.2,30.0,30.23,SSE,157,2.0,11.0,53,0.00,,,0.00,Weather View 32 v70,2013-03-10 19:21:00,
2013-03-10 15:26:00,46.6,29.4,30.23,NE,45,2.0,11.0,51,0.00,,,0.00,Weather View 32 v70,2013-03-10 19:26:00,
2013-03-10 15:31:00,46.9,28.7,30.22,North,360,1.0,11.0,49,0.00,,,0.00,Weather View 32 v70,2013-03-10 19:31:00,
2013-03-10 15:36:00,46.9,28.7,30.23,ENE,67,0.0,11.0,49,0.00,,,0.00,Weather View 32 v70,2013-03-10 19:36:00,
2013-03-10 15:41:00,46.9,32.0,30.23,ENE,67,3.0,11.0,56,0.00,,,0.00,Weather View 32 v70,2013-03-10 19:41:00,
2013-03-10 15:47:00,46.8,29.6,30.22,ENE,67,2.0,11.0,51,0.00,,,0.00,Weather View 32 v70,2013-03-10 19:47:00,
2013-03-10 15:52:00,47.2,29.5,30.22,ESE,112,1.0,11.0,50,0.00,,,0.00,Weather View 32 v70,2013-03-10 19:52:00,
2013-03-10 15:57:00,47.3,31.5,30.22,East,90,6.0,9.0,54,0.00,,,0.00,Weather View 32 v70,2013-03-10 19:57:00,
2013-03-10 16:02:00,46.9,29.2,30.22,South,180,0.0,9.0,50,0.00,,,0.00,Weather View 32 v70,2013-03-10 20:02:00,
2013-03-10 16:07:00,46.9,30.2,30.22,ESE,112,1.0,9.0,52,0.00,,,0.00,Weather View 32 v70,2013-03-10 20:07:00,
2013-03-10 16:12:00,46.7,31.4,30.21,ENE,67,5.0,9.0,55,0.00,,,0.00,Weather View 32 v70,2013-03-10 20:12:00,
2013-03-10 16:17:00,46.6,29.9,30.21,East,90,6.0,9.0,52,0.00,,,0.00,Weather View 32 v70,2013-03-10 20:17:00,
2013-03-10 16:22:00,46.5,30.3,30.21,SSE,157,1.0,8.0,53,0.00,,,0.00,Weather View 32 v70,2013-03-10 20:22:00,
2013-03-10 16:27:00,46.4,29.7,30.21,NE,45,2.0,8.0,52,0.00,,,0.00,Weather View 32 v70,2013-03-10 20:27:00,
2013-03-10 16:32:00,46.5,30.3,30.21,ENE,67,3.0,8.0,53,0.00,,,0.00,Weather View 32 v70,2013-03-10 20:32:00,
2013-03-10 16:37:00,46.6,30.8,30.21,SSE,157,2.0,8.0,54,0.00,,,0.00,Weather View 32 v70,2013-03-10 20:37:00,
2013-03-10 16:42:00,46.3,29.6,30.21,NE,45,2.0,8.0,52,0.00,,,0.00,Weather View 32 v70,2013-03-10 20:42:00,
2013-03-10 16:47:00,46.4,31.1,30.21,ESE,112,2.0,8.0,55,0.00,,,0.00,Weather View 32 v70,2013-03-10 20:47:00,
2013-03-10 16:52:00,46.4,32.8,30.21,ENE,67,1.0,8.0,59,0.00,,,0.00,Weather View 32 v70,2013-03-10 20:52:00,
2013-03-10 16:57:00,46.2,32.2,30.21,ESE,112,2.0,8.0,58,0.00,,,0.00,Weather View 32 v70,2013-03-10 20:57:00,
2013-03-10 17:02:00,46.0,31.2,30.21,SE,135,5.0,7.0,56,0.00,,,0.00,Weather View 32 v70,2013-03-10 21:02:00,
2013-03-10 17:07:00,46.1,31.7,30.21,SSE,157,1.0,7.0,57,0.00,,,0.00,Weather View 32 v70,2013-03-10 21:07:00,
2013-03-10 17:12:00,45.9,31.1,30.21,SSE,157,2.0,7.0,56,0.00,,,0.00,Weather View 32 v70,2013-03-10 21:12:00,
2013-03-10 17:17:00,45.9,30.2,30.20,ENE,67,3.0,7.0,54,0.00,,,0.00,Weather View 32 v70,2013-03-10 21:17:00,
2013-03-10 17:22:00,45.9,31.1,30.20,ESE,112,2.0,7.0,56,0.00,,,0.00,Weather View 32 v70,2013-03-10 21:22:00,
2013-03-10 17:27:00,45.7,28.6,30.20,SSE,157,1.0,7.0,51,0.00,,,0.00,Weather View 32 v70,2013-03-10 21:27:00,
2013-03-10 17:32:00,45.6,31.2,30.20,ESE,112,2.0,7.0,57,0.00,,,0.00,Weather View 32 v70,2013-03-10 21:32:00,
2013-03-10 17:38:00,45.5,30.7,30.20,SE,135,1.0,6.0,56,0.00,,,0.00,Weather View 32 v70,2013-03-10 21:38:00,
2013-03-10 17:43:00,45.5,32.0,30.19,ESE,112,1.0,6.0,59,0.21,,,0.00,Weather View 32 v70,2013-03-10 21:43:00,
2013-03-10 17:48:00,45.2,30.4,30.19,ESE,112,0.0,6.0,56,0.00,,,0.00,Weather View 32 v70,2013-03-10 21:48:00,
2013-03-10 17:53:00,44.9,30.1,30.19,North,360,0.0,6.0,56,0.00,,,0.00,Weather View 32 v70,2013-03-10 21:53:00,
2013-03-10 17:58:00,44.8,29.1,30.19,SSE,157,1.0,8.0,54,0.00,,,0.00,Weather View 32 v70,2013-03-10 21:58:00,
2013-03-10 18:03:00,44.5,28.9,30.19,East,90,2.0,8.0,54,0.00,,,0.00,Weather View 32 v70,2013-03-10 22:03:00,
2013-03-10 18:08:00,44.2,28.6,30.19,ESE,112,1.0,8.0,54,0.00,,,0.00,Weather View 32 v70,2013-03-10 22:08:00,
2013-03-10 18:13:00,43.9,29.6,30.19,ESE,112,0.0,8.0,57,0.00,,,0.00,Weather View 32 v70,2013-03-10 22:13:00,
2013-03-10 18:18:00,43.7,28.1,30.19,ESE,112,1.0,8.0,54,0.00,,,0.00,Weather View 32 v70,2013-03-10 22:18:00,
2013-03-10 18:23:00,43.4,29.2,30.19,SSE,157,0.0,8.0,57,0.00,,,0.00,Weather View 32 v70,2013-03-10 22:23:00,
2013-03-10 18:28:00,42.9,27.8,30.19,ENE,67,4.0,8.0,55,0.00,,,0.00,Weather View 32 v70,2013-03-10 22:28:00,
2013-03-10 18:33:00,42.9,27.8,30.19,SE,135,1.0,8.0,55,0.00,,,0.00,Weather View 32 v70,2013-03-10 22:33:00,
2013-03-10 18:38:00,42.7,28.9,30.19,ENE,67,0.0,8.0,58,0.00,,,0.00,Weather View 32 v70,2013-03-10 22:38:00,
2013-03-10 18:43:00,42.6,28.4,30.19,ENE,67,2.0,8.0,57,0.00,,,0.00,Weather View 32 v70,2013-03-10 22:43:00,
2013-03-10 18:48:00,42.3,28.1,30.19,NNW,337,0.0,8.0,57,0.00,,,0.00,Weather View 32 v70,2013-03-10 22:48:00,
2013-03-10 18:53:00,41.9,29.0,30.20,ESE,112,2.0,8.0,60,0.00,,,0.00,Weather View 32 v70,2013-03-10 22:53:00,
2013-03-10 18:58:00,41.7,29.6,30.20,ENE,67,3.0,6.0,62,0.00,,,0.00,Weather View 32 v70,2013-03-10 22:58:00,
2013-03-10 19:03:00,41.4,31.6,30.20,ENE,67,2.0,6.0,68,0.00,,,0.00,Weather View 32 v70,2013-03-10 23:03:00,
2013-03-10 19:08:00,41.1,31.7,30.21,SSE,157,0.0,6.0,69,0.00,,,0.00,Weather View 32 v70,2013-03-10 23:08:00,
2013-03-10 19:13:00,40.9,31.9,30.21,East,90,0.0,6.0,70,0.00,,,0.00,Weather View 32 v70,2013-03-10 23:13:00,
2013-03-10 19:18:00,40.6,33.0,30.21,NE,45,0.0,6.0,74,0.00,,,0.00,Weather View 32 v70,2013-03-10 23:18:00,
2013-03-10 19:23:00,40.2,33.2,30.20,ENE,67,1.0,6.0,76,0.00,,,0.00,Weather View 32 v70,2013-03-10 23:23:00,
2013-03-10 19:28:00,39.9,34.8,30.20,East,90,2.0,6.0,82,0.00,,,0.00,Weather View 32 v70,2013-03-10 23:28:00,
2013-03-10 19:33:00,39.4,38.4,30.20,ENE,67,2.0,6.0,96,0.00,,,0.00,Weather View 32 v70,2013-03-10 23:33:00,
2013-03-10 19:38:00,39.4,38.4,30.20,ENE,67,2.0,6.0,96,0.00,,,0.00,Weather View 32 v70,2013-03-10 23:38:00,
2013-03-10 19:43:00,39.2,38.2,30.20,ENE,67,2.0,6.0,96,0.00,,,0.00,Weather View 32 v70,2013-03-10 23:43:00,
2013-03-10 19:48:00,38.9,37.9,30.20,East,90,1.0,6.0,96,0.00,,,0.00,Weather View 32 v70,2013-03-10 23:48:00,
2013-03-10 19:53:00,38.9,37.9,30.20,ESE,112,4.0,8.0,96,0.00,,,0.00,Weather View 32 v70,2013-03-10 23:53:00,
2013-03-10 19:58:00,39.2,38.2,30.19,NNW,337,2.0,9.0,96,0.00,,,0.00,Weather View 32 v70,2013-03-10 23:58:00,
2013-03-10 20:03:00,39.1,38.1,30.20,East,90,1.0,9.0,96,0.00,,,0.00,Weather View 32 v70,2013-03-11 00:03:00,
2013-03-10 20:08:00,39.0,38.0,30.20,SSE,157,1.0,9.0,96,0.00,,,0.00,Weather View 32 v70,2013-03-11 00:08:00,
2013-03-10 20:13:00,38.9,37.9,30.19,SE,135,0.0,9.0,96,0.00,,,0.00,Weather View 32 v70,2013-03-11 00:13:00,
2013-03-10 20:18:00,38.8,37.8,30.19,ENE,67,2.0,9.0,96,0.00,,,0.00,Weather View 32 v70,2013-03-11 00:18:00,
2013-03-10 20:23:00,38.8,37.8,30.19,NNE,22,1.0,9.0,96,0.00,,,0.00,Weather View 32 v70,2013-03-11 00:23:00,
2013-03-10 20:28:00,38.6,37.6,30.19,ENE,67,0.0,9.0,96,0.00,,,0.00,Weather View 32 v70,2013-03-11 00:28:00,
2013-03-10 20:33:00,38.5,37.5,30.19,East,90,2.0,9.0,96,0.00,,,0.00,Weather View 32 v70,2013-03-11 00:33:00,
2013-03-10 20:38:00,38.5,37.5,30.19,ENE,67,1.0,9.0,96,0.00,,,0.00,Weather View 32 v70,2013-03-11 00:38:00,
2013-03-10 20:43:00,38.3,37.3,30.19,East,90,2.0,9.0,96,0.00,,,0.00,Weather View 32 v70,2013-03-11 00:43:00,
2013-03-10 20:48:00,38.2,37.2,30.19,SE,135,2.0,9.0,96,0.00,,,0.00,Weather View 32 v70,2013-03-11 00:48:00,
2013-03-10 20:53:00,38.1,37.1,30.19,NE,45,4.0,9.0,96,0.00,,,0.00,Weather View 32 v70,2013-03-11 00:53:00,
2013-03-10 20:58:00,38.2,37.2,30.18,ENE,67,2.0,9.0,96,0.00,,,0.00,Weather View 32 v70,2013-03-11 00:58:00,
2013-03-10 21:03:00,37.9,36.6,30.18,ENE,67,2.0,9.0,95,0.00,,,0.00,Weather View 32 v70,2013-03-11 01:03:00,
2013-03-10 21:08:00,37.9,36.6,30.19,ESE,112,1.0,9.0,95,0.00,,,0.00,Weather View 32 v70,2013-03-11 01:08:00,
2013-03-10 21:13:00,37.8,35.7,30.19,NNE,22,2.0,9.0,92,0.00,,,0.00,Weather View 32 v70,2013-03-11 01:13:00,
2013-03-10 21:18:00,37.8,35.7,30.19,North,360,0.0,9.0,92,0.00,,,0.00,Weather View 32 v70,2013-03-11 01:18:00,
2013-03-10 21:23:00,37.7,35.9,30.18,ENE,67,2.0,9.0,93,0.00,,,0.00,Weather View 32 v70,2013-03-11 01:23:00,
2013-03-10 21:28:00,37.8,36.5,30.17,SE,135,0.0,9.0,95,0.00,,,0.00,Weather View 32 v70,2013-03-11 01:28:00,
2013-03-10 21:33:00,37.5,35.9,30.18,East,90,4.0,9.0,94,0.00,,,0.00,Weather View 32 v70,2013-03-11 01:33:00,
2013-03-10 21:38:00,37.6,35.5,30.18,NE,45,1.0,9.0,92,0.00,,,0.00,Weather View 32 v70,2013-03-11 01:38:00,
2013-03-10 21:43:00,37.5,35.4,30.18,ENE,67,0.0,9.0,92,0.00,,,0.00,Weather View 32 v70,2013-03-11 01:43:00,
2013-03-10 21:48:00,37.3,36.0,30.18,WSW,247,3.0,9.0,95,0.00,,,0.00,Weather View 32 v70,2013-03-11 01:48:00,
2013-03-10 21:53:00,37.2,35.6,30.18,WSW,247,2.0,9.0,94,0.00,,,0.00,Weather View 32 v70,2013-03-11 01:53:00,
2013-03-10 21:58:00,37.2,35.9,30.19,SSE,157,0.0,9.0,95,0.00,,,0.00,Weather View 32 v70,2013-03-11 01:58:00,
2013-03-10 22:03:00,37.2,35.9,30.19,East,90,4.0,9.0,95,0.00,,,0.00,Weather View 32 v70,2013-03-11 02:03:00,
2013-03-10 22:08:00,37.1,35.8,30.18,NNE,22,4.0,8.0,95,0.00,,,0.00,Weather View 32 v70,2013-03-11 02:08:00,
2013-03-10 22:13:00,36.9,35.6,30.18,South,180,0.0,8.0,95,0.00,,,0.00,Weather View 32 v70,2013-03-11 02:13:00,
2013-03-10 22:18:00,36.7,35.4,30.18,NNW,337,0.0,8.0,95,0.00,,,0.00,Weather View 32 v70,2013-03-11 02:18:00,
2013-03-10 22:24:00,36.7,35.4,30.18,ESE,112,1.0,8.0,95,0.00,,,0.00,Weather View 32 v70,2013-03-11 02:24:00,
2013-03-10 22:29:00,36.7,35.4,30.19,North,360,0.0,8.0,95,0.00,,,0.00,Weather View 32 v70,2013-03-11 02:29:00,
2013-03-10 22:34:00,36.5,35.2,30.18,East,90,2.0,8.0,95,0.00,,,0.00,Weather View 32 v70,2013-03-11 02:34:00,
2013-03-10 22:39:00,36.4,35.1,30.17,ESE,112,0.0,8.0,95,0.00,,,0.00,Weather View 32 v70,2013-03-11 02:39:00,
2013-03-10 22:44:00,36.3,35.0,30.17,ENE,67,4.0,8.0,95,0.00,,,0.00,Weather View 32 v70,2013-03-11 02:44:00,
2013-03-10 22:49:00,36.2,34.9,30.18,ENE,67,4.0,8.0,95,0.00,,,0.00,Weather View 32 v70,2013-03-11 02:49:00,
2013-03-10 22:54:00,36.1,34.8,30.18,ENE,67,2.0,8.0,95,0.00,,,0.00,Weather View 32 v70,2013-03-11 02:54:00,
2013-03-10 22:59:00,36.0,34.7,30.18,ESE,112,4.0,8.0,95,0.00,,,0.00,Weather View 32 v70,2013-03-11 02:59:00,
2013-03-10 23:04:00,35.7,34.4,30.17,North,360,1.0,8.0,95,0.00,,,0.00,Weather View 32 v70,2013-03-11 03:04:00,
2013-03-10 23:09:00,35.7,34.4,30.17,ENE,67,6.0,7.0,95,0.00,,,0.00,Weather View 32 v70,2013-03-11 03:09:00,
2013-03-10 23:14:00,35.7,34.4,30.17,NE,45,2.0,8.0,95,0.00,,,0.00,Weather View 32 v70,2013-03-11 03:14:00,
2013-03-10 23:19:00,35.6,34.3,30.17,ESE,112,1.0,8.0,95,0.00,,,0.00,Weather View 32 v70,2013-03-11 03:19:00,
2013-03-10 23:24:00,35.4,34.1,30.17,ENE,67,2.0,8.0,95,0.00,,,0.00,Weather View 32 v70,2013-03-11 03:24:00,
2013-03-10 23:29:00,35.4,34.1,30.17,SE,135,2.0,8.0,95,0.00,,,0.00,Weather View 32 v70,2013-03-11 03:29:00,
2013-03-10 23:34:00,35.3,34.0,30.17,ENE,67,1.0,8.0,95,0.00,,,0.00,Weather View 32 v70,2013-03-11 03:34:00,
2013-03-10 23:39:00,35.3,34.0,30.17,NE,45,2.0,8.0,95,0.00,,,0.00,Weather View 32 v70,2013-03-11 03:39:00,
2013-03-10 23:44:00,35.2,33.9,30.17,ENE,67,2.0,8.0,95,0.00,,,0.00,Weather View 32 v70,2013-03-11 03:44:00,
2013-03-10 23:49:00,35.1,33.8,30.17,NNE,22,0.0,8.0,95,0.00,,,0.00,Weather View 32 v70,2013-03-11 03:49:00,
2013-03-10 23:54:00,35.0,33.7,30.17,WSW,247,0.0,8.0,95,0.00,,,0.00,Weather View 32 v70,2013-03-11 03:54:00,
2013-03-10 23:59:00,34.9,33.6,30.17,East,90,1.0,8.0,95,0.00,,,0.00,Weather View 32 v70,2013-03-11 03:59:00,